Location: Seattle
(47.6064°N, 122.3308°W)
Time: 09:16:37
(UTC-07:00)

RS-15 - Pass Details

Date: 04 April 2023
Orbit: 1885 x 2159 km, 64.8° (Epoch: 01 June)

Event Time Altitude Azimuth Distance (km) Brightness Sun altitude
Rises 00:43:34 0° 321° (NW) 5,641 11.2 -36.4°
Reaches altitude 10° 00:47:02 10° 321° (NW) 4,611 10.6 -36.5°
Maximum altitude 00:59:00 78° 238° (WSW) 2,076 7.9 -36.7°
Enters shadow 01:00:00 74° 196° (SSW) 2,097 7.8 -36.7°
